Hourly Data Report for October 04, 2017

All times are specified in Local Standard Time (LST). Add 1 hour to adjust for Daylight Saving Time where and when it is observed.

CHARLOTTETOWN A
PRINCE EDWARD ISLAND

46°17'21.000" N
63°07'09.000" W
48.50 m
8300301
71706
YYG

Download Data

Hourly Data (October 2017)
Hourly Data Report for October 4, 2017
Temp Definition
°C
Dew Point Temp Definition
°C
Rel Hum Definition
%
Wind Dir Definition
10's deg

Wind Spd Definition
km/h
Visibility Definition
km
Stn Press Definition
kPa
Hmdx Definition


Wind Chill Definition


Weather Definition


TIME
00:00 Legend Double Dagger 10.0 8.4 90 23 14 24.1 102.22     LegendNANA
01:00 Legend Double Dagger 9.9 8.4 90 23 12 24.1 102.15     LegendNANA
02:00 Legend Double Dagger 10.1 8.8 91 24 13 24.1 102.05     Mainly Clear
03:00 Legend Double Dagger 10.5 9.3 92 23 16 24.1 101.98     LegendNANA
04:00 Legend Double Dagger 10.9 9.8 92 22 18 24.1 101.87     LegendNANA
05:00 Legend Double Dagger 11.3 10.1 93 23 20 24.1 101.78     Mainly Clear
06:00 Legend Double Dagger 11.4 10.1 92 23 19 24.1 101.70     LegendNANA
07:00 Legend Double Dagger 11.9 10.4 91 24 18 24.1 101.67     LegendNANA
08:00 Legend Double Dagger 13.0 11.0 88 24 20 24.1 101.63     Mostly Cloudy
09:00 Legend Double Dagger 14.1 11.4 84 24 21 24.1 101.60     LegendNANA
10:00 Legend Double Dagger 15.3 11.5 78 25 28 24.1 101.53     LegendNANA
11:00 Legend Double Dagger 16.6 11.7 72 24 26 24.1 101.45     Mainly Clear
12:00 Legend Double Dagger 17.5 11.6 68 25 25 24.1 101.38     LegendNANA
13:00 Legend Double Dagger 18.6 11.9 64 23 26 24.1 101.24     LegendNANA
14:00 Legend Double Dagger 19.6 11.9 61 24 28 24.1 101.15     Mostly Cloudy
15:00 Legend Double Dagger 19.2 12.5 65 22 26 24.1 101.10     LegendNANA
16:00 Legend Double Dagger 18.5 12.1 66 23 17 24.1 101.02     LegendNANA
17:00 Legend Double Dagger 18.5 11.7 64 22 27 24.1 100.93     Mostly Cloudy
18:00 Legend Double Dagger 17.5 10.1 62 22 23 24.1 100.85     LegendNANA
19:00 Legend Double Dagger 16.6 10.6 67 22 25 24.1 100.80     LegendNANA
20:00 Legend Double Dagger 15.7 10.4 70 23 24 24.1 100.79     Mainly Clear
21:00 Legend Double Dagger 15.1 10.5 74 22 24 24.1 100.74     LegendNANA
22:00 Legend Double Dagger 15.0 10.6 75 22 23 24.1 100.64     LegendNANA
23:00 Legend Double Dagger 14.8 10.7 76 22 25 24.1 100.57     Mainly Clear

Notes on Data Quality.

Legend

  • E = Estimated
  • M = Missing
  • NA = Not Available
  • ‡ = Partner data that is not subject to review by the National Climate Archives
Date modified: